Location: Praha
(50.0830°N, 14.4670°E)
Time: 20:02:36
(UTC+01:00)

ISS - Pass Details

Date: 04 December 2019
Orbit: 411 x 421 km, 51.6° (Epoch: 08 December)

Event Time Altitude Azimuth Distance (km) Brightness Sun altitude
Rises 18:25:04 0° 286° (WNW) 2,361 1.2 -22.0°
Reaches altitude 10° 18:27:10 10° 285° (WNW) 1,498 0.0 -22.4°
Enters shadow 18:29:50 52° 271° (W) 528 -3.0 -22.8°
